When you browse on this site, cookies collect data to enhance your experience and personalize the content and advertising you see.
Visit our Privacy Policy to learn more. By continuing to use the site, you agree to this use of cookies and data.
  • In Germany
  • List of Countries
  • For 7 days
  • Water Temperature
  • Satellite Maps
  • Weather Map
  • Weather Widgets
  • user-avatar
    Login

    Hourly Weather Yelsk

    Today, 20 March, Wednesday

    Time Temperature Precipitation Wind Pressure Humidity
    00:00 +5°C° 0 mm 2 mps 754 mmHg 69%
    01:00 +5°C° 0 mm 2 mps 754 mmHg 71%
    02:00 +5°C° 0 mm 1 mps 754 mmHg 73%
    03:00 +5°C° 0 mm 1 mps 754 mmHg 73%
    04:00 +5°C° 0 mm 1 mps 754 mmHg 73%
    05:00 +5°C° 0 mm 1 mps 755 mmHg 74%
    06:00 +4°C° 0 mm 2 mps 755 mmHg 72%
    07:00 +4°C° 0 mm 2 mps 755 mmHg 70%
    08:00 +4°C° 0 mm 2 mps 756 mmHg 67%
    09:00 +5°C° 0 mm 2 mps 756 mmHg 61%
    10:00 +7°C° 0 mm 3 mps 756 mmHg 54%
    11:00 +8°C° 0 mm 3 mps 756 mmHg 48%
    12:00 +7°C° 0 mm 4 mps 756 mmHg 45%
    13:00 +7°C° 0 mm 4 mps 756 mmHg 43%
    14:00 +8°C° 0 mm 4 mps 756 mmHg 39%
    15:00 +7°C° 0 mm 4 mps 756 mmHg 40%
    16:00 +7°C° 0 mm 4 mps 756 mmHg 41%
    17:00 +8°C° 0 mm 3 mps 756 mmHg 41%
    18:00 +7°C° 0 mm 3 mps 756 mmHg 48%
    19:00 +5°C° 0 mm 2 mps 756 mmHg 54%
    20:00 +4°C° 0 mm 2 mps 757 mmHg 60%
    21:00 +3°C° 0 mm 2 mps 757 mmHg 62%
    22:00 +3°C° 0 mm 2 mps 757 mmHg 65%
    23:00 +2°C° 0 mm 2 mps 757 mmHg 67%

    Tomorrow, 21 March, Thursday

    Time Temperature Precipitation Wind Pressure Humidity
    00:00 +2°C° 0 mm 2 mps 757 mmHg 68%
    01:00 +2°C° 0 mm 2 mps 756 mmHg 69%
    02:00 +1°C° 0 mm 3 mps 756 mmHg 70%
    03:00 +1°C° 0 mm 3 mps 756 mmHg 70%
    04:00 +1°C° 0 mm 3 mps 755 mmHg 69%
    05:00 0°C° 0 mm 4 mps 755 mmHg 69%
    06:00 +1°C° 0 mm 4 mps 755 mmHg 68%
    07:00 +1°C° 0 mm 5 mps 755 mmHg 67%
    08:00 +2°C° 0 mm 5 mps 755 mmHg 66%
    09:00 +3°C° 0 mm 5 mps 755 mmHg 66%
    10:00 +5°C° 0 mm 5 mps 755 mmHg 66%
    11:00 +6°C° 0 mm 5 mps 755 mmHg 66%
    12:00 +6°C° 0 mm 5 mps 755 mmHg 65%
    13:00 +7°C° 0 mm 5 mps 755 mmHg 63%
    14:00 +7°C° 0 mm 5 mps 755 mmHg 61%
    15:00 +7°C° 0 mm 4 mps 754 mmHg 62%
    16:00 +7°C° 0 mm 4 mps 754 mmHg 62%
    17:00 +7°C° 0 mm 4 mps 754 mmHg 62%
    18:00 +7°C° 0 mm 3 mps 754 mmHg 69%
    19:00 +5°C° 0 mm 3 mps 755 mmHg 75%
    20:00 +5°C° 0 mm 2 mps 755 mmHg 82%
    21:00 +5°C° 0 mm 2 mps 755 mmHg 83%
    22:00 +4°C° 0 mm 2 mps 754 mmHg 83%
    23:00 +4°C° 0 mm 2 mps 754 mmHg 84%

    Day after tomorrow, 22 March, Friday

    Time Temperature Precipitation Wind Pressure Humidity
    00:00 +4°C° 0 mm 3 mps 754 mmHg 84%
    01:00 +4°C° 0 mm 3 mps 754 mmHg 84%
    02:00 +4°C° 0 mm 3 mps 754 mmHg 84%
    03:00 +4°C° 0 mm 4 mps 753 mmHg 84%
    04:00 +5°C° 0 mm 4 mps 753 mmHg 84%
    05:00 +5°C° 0 mm 4 mps 752 mmHg 85%
    06:00 +5°C° 0 mm 5 mps 752 mmHg 85%
    07:00 +6°C° 0 mm 5 mps 752 mmHg 86%
    08:00 +6°C° 0 mm 5 mps 752 mmHg 87%
    09:00 +7°C° 0.1 mm 5 mps 752 mmHg 85%
    10:00 +8°C° 0.1 mm 5 mps 752 mmHg 83%
    11:00 +8°C° 0.1 mm 5 mps 752 mmHg 82%
    12:00 +9°C° 0.1 mm 5 mps 752 mmHg 77%
    13:00 +9°C° 0.1 mm 6 mps 752 mmHg 72%
    14:00 +10°C° 0.1 mm 6 mps 752 mmHg 67%
    15:00 +10°C° 0 mm 6 mps 752 mmHg 59%
    16:00 +10°C° 0 mm 5 mps 752 mmHg 52%
    17:00 +10°C° 0 mm 5 mps 752 mmHg 45%
    18:00 +10°C° 0 mm 4 mps 753 mmHg 45%
    19:00 +7°C° 0 mm 4 mps 753 mmHg 45%
    20:00 +5°C° 0 mm 4 mps 753 mmHg 44%
    21:00 +4°C° 0 mm 4 mps 754 mmHg 48%
    22:00 +4°C° 0 mm 4 mps 754 mmHg 51%
    23:00 +3°C° 0 mm 3 mps 754 mmHg 54%

    23 March, Saturday

    Time Temperature Precipitation Wind Pressure Humidity
    00:00 +2°C° 0 mm 3 mps 754 mmHg 57%
    01:00 +2°C° 0 mm 3 mps 754 mmHg 59%
    02:00 +1°C° 0 mm 3 mps 754 mmHg 61%
    03:00 0°C° 0 mm 3 mps 754 mmHg 63%
    04:00 0°C° 0 mm 3 mps 754 mmHg 65%
    05:00 -1°C° 0 mm 3 mps 754 mmHg 67%
    06:00 0°C° 0 mm 3 mps 754 mmHg 63%
    07:00 +1°C° 0 mm 3 mps 754 mmHg 60%
    08:00 +1°C° 0 mm 3 mps 754 mmHg 57%
    09:00 +3°C° 0 mm 4 mps 754 mmHg 51%
    10:00 +4°C° 0 mm 4 mps 754 mmHg 45%
    11:00 +6°C° 0 mm 4 mps 754 mmHg 39%
    12:00 +7°C° 0 mm 4 mps 754 mmHg 36%
    13:00 +8°C° 0 mm 4 mps 753 mmHg 33%
    14:00 +10°C° 0 mm 4 mps 753 mmHg 30%
    15:00 +9°C° 0 mm 3 mps 753 mmHg 32%
    16:00 +9°C° 0 mm 3 mps 753 mmHg 33%
    17:00 +9°C° 0 mm 2 mps 752 mmHg 34%
    18:00 +8°C° 0 mm 2 mps 752 mmHg 38%
    19:00 +8°C° 0 mm 1 mps 752 mmHg 42%
    20:00 +6°C° 0 mm 1 mps 752 mmHg 46%
    21:00 +6°C° 0 mm 1 mps 752 mmHg 46%
    22:00 +5°C° 0 mm 2 mps 752 mmHg 47%
    23:00 +5°C° 0 mm 2 mps 752 mmHg 47%

    24 March, Sunday

    Time Temperature Precipitation Wind Pressure Humidity
    00:00 +5°C° 0 mm 2 mps 751 mmHg 57%
    01:00 +5°C° 0 mm 2 mps 751 mmHg 67%
    02:00 +4°C° 0 mm 2 mps 750 mmHg 77%
    03:00 +4°C° 1 mm 3 mps 750 mmHg 83%
    04:00 +5°C° 1 mm 3 mps 750 mmHg 89%
    05:00 +7°C° 1 mm 3 mps 750 mmHg 95%
    06:00 +6°C° 0.1 mm 4 mps 750 mmHg 91%
    07:00 +6°C° 0.1 mm 4 mps 751 mmHg 88%
    08:00 +6°C° 0.1 mm 5 mps 751 mmHg 84%
    09:00 +7°C° 0 mm 5 mps 751 mmHg 71%
    10:00 +7°C° 0 mm 5 mps 751 mmHg 59%
    11:00 +8°C° 0 mm 5 mps 752 mmHg 46%
    12:00 +8°C° 0 mm 5 mps 752 mmHg 44%
    13:00 +9°C° 0 mm 5 mps 752 mmHg 41%
    14:00 +9°C° 0 mm 5 mps 751 mmHg 39%
    15:00 +10°C° 0 mm 4 mps 751 mmHg 40%
    16:00 +8°C° 0 mm 4 mps 751 mmHg 42%
    17:00 +8°C° 0 mm 4 mps 751 mmHg 43%
    18:00 +7°C° 0 mm 3 mps 751 mmHg 49%
    19:00 +6°C° 0 mm 2 mps 752 mmHg 54%
    20:00 +6°C° 0 mm 1 mps 752 mmHg 60%
    21:00 +5°C° 0 mm 1 mps 752 mmHg 61%
    22:00 +5°C° 0 mm 1 mps 752 mmHg 63%
    23:00 +4°C° 0 mm 1 mps 752 mmHg 64%

    25 March, Monday

    Time Temperature Precipitation Wind Pressure Humidity
    00:00 +4°C° 0 mm 1 mps 751 mmHg 65%
    01:00 +4°C° 0 mm 1 mps 751 mmHg 65%
    02:00 +3°C° 0 mm 1 mps 751 mmHg 66%
    03:00 +3°C° 0 mm 1 mps 750 mmHg 66%
    04:00 +3°C° 0 mm 1 mps 750 mmHg 67%
    05:00 +2°C° 0 mm 2 mps 749 mmHg 68%
    06:00 +3°C° 0 mm 2 mps 749 mmHg 66%
    07:00 +3°C° 0 mm 2 mps 749 mmHg 64%
    08:00 +3°C° 0 mm 3 mps 748 mmHg 62%
    09:00 +4°C° 0 mm 3 mps 748 mmHg 57%
    10:00 +5°C° 0 mm 3 mps 747 mmHg 53%
    11:00 +8°C° 0 mm 3 mps 746 mmHg 49%
    12:00 +7°C° 0.1 mm 4 mps 745 mmHg 49%
    13:00 +7°C° 0.1 mm 4 mps 744 mmHg 50%
    14:00 +8°C° 0.1 mm 4 mps 744 mmHg 50%
    15:00 +7°C° 0.2 mm 4 mps 743 mmHg 58%
    16:00 +6°C° 0.2 mm 4 mps 742 mmHg 65%
    17:00 +6°C° 0.2 mm 4 mps 741 mmHg 72%
    18:00 +5°C° 0.1 mm 4 mps 741 mmHg 76%
    19:00 +5°C° 0.1 mm 4 mps 740 mmHg 81%
    20:00 +4°C° 0.1 mm 4 mps 740 mmHg 85%
    21:00 +4°C° 0.2 mm 4 mps 740 mmHg 80%
    22:00 +4°C° 0.2 mm 4 mps 739 mmHg 75%
    23:00 +3°C° 0.2 mm 5 mps 739 mmHg 70%
    Show more